This is the latest recevied weather packets stored in our database for station/object VK1KCM-5. If no packets are shown the sender has not sent any weather packets the latest 10 day(s).
| Time | Temp. | Humidity | Pressure | Rain* | Wind** | Luminosity | Snow |
|---|---|---|---|---|---|---|---|
| 1788146977 | 22.22° C | 35% | 1024.6 hPa | 0 mm | - | - | - |
| 1788146697 | 22.78° C | 37% | 1024.9 hPa | 0 mm | - | - | - |
| 1788146422 | 22.78° C | 37% | 1025 hPa | 0 mm | - | - | - |
| 1788146140 | 22.78° C | 37% | 1025 hPa | 0 mm | - | - | - |
| 1788145897 | 22.22° C | 38% | 1024.9 hPa | 0 mm | - | - | - |
| 1788145602 | 21.67° C | 38% | 1025.2 hPa | 0 mm | - | - | - |
| 1788145310 | 21.67° C | 37% | 1025.3 hPa | 0 mm | - | - | - |
| 1788145057 | 22.22° C | 37% | 1025.1 hPa | 0 mm | - | - | - |
| 1788144779 | 22.78° C | 35% | 1025.4 hPa | 0 mm | - | - | - |
| 1788144527 | 22.22° C | 34% | 1025.3 hPa | 0 mm | - | - | - |
| 1788144231 | 21.67° C | 30% | 1025.6 hPa | 0 mm | - | - | - |
| 1788143977 | 21.11° C | 32% | 1025.7 hPa | 0 mm | - | - | - |
| 1788143687 | 21.11° C | 32% | 1025.8 hPa | 0 mm | - | - | - |
| 1788143397 | 21.67° C | 32% | 1025.7 hPa | 0 mm | - | - | - |
| 1788143113 | 21.11° C | 37% | 1025.8 hPa | 0 mm | - | - | - |
| 1788142862 | 21.11° C | 37% | 1025.8 hPa | 0 mm | - | - | - |
| 1788142617 | 21.67° C | 35% | 1026.1 hPa | 0 mm | - | - | - |
| 1788142357 | 21.11° C | 34% | 1026.1 hPa | 0 mm | - | - | - |
| 1788142102 | 21.67° C | 35% | 1026.1 hPa | 0 mm | - | - | - |
| 1788141807 | 21.11° C | 37% | 1026.1 hPa | 0 mm | - | - | - |
| 1788141531 | 20.56° C | 38% | 1026.3 hPa | 0 mm | - | - | - |
| 1788141242 | 19.44° C | 43% | 1026.8 hPa | 0 mm | - | - | - |
| 1788140982 | 18.89° C | 45% | 1027 hPa | 0 mm | - | - | - |
| 1788140704 | 18.89° C | 46% | 1027.2 hPa | 0 mm | - | - | - |
| 1788140425 | 19.44° C | 44% | 1027.2 hPa | 0 mm | - | - | - |
* Rain latest hour (hover to see other rain measurements)
** Current wind speed in m/s (hover to see current wind gust speed)